Time,TemperatureF,DewpointF,PressureIn,WindDirection,WindDirectionDegrees,WindSpeedMPH,WindSpeedGustMPH,Humidity,HourlyPrecipIn,Conditions,Clouds,dailyrainin,SoftwareType,DateUTC
2013-09-05 00:00:00,77.0,59.0,-100.00,NW,305,1.0,-999.0,52,0.00,,,-99.99,,2013-09-05 07:00:00,
2013-09-05 00:42:00,77.0,59.0,-100.00,NW,305,1.0,-999.0,52,0.00,,,-99.99,,2013-09-05 07:42:00,
2013-09-05 00:52:00,77.0,59.0,-100.00,NW,305,1.0,-999.0,52,0.00,,,-99.99,,2013-09-05 07:52:00,
2013-09-05 01:00:00,76.0,59.0,-100.00,West,261,3.0,-999.0,55,0.00,,,-99.99,,2013-09-05 08:00:00,
2013-09-05 01:42:00,76.0,59.0,-100.00,West,261,3.0,-999.0,55,0.00,,,-99.99,,2013-09-05 08:42:00,
2013-09-05 01:52:00,76.0,59.0,-100.00,West,261,3.0,-999.0,55,0.00,,,-99.99,,2013-09-05 08:52:00,
2013-09-05 02:00:00,73.0,59.0,-100.00,SW,224,1.0,-999.0,60,0.00,,,-99.99,,2013-09-05 09:00:00,
2013-09-05 02:43:00,73.0,59.0,-100.00,SW,224,1.0,-999.0,60,0.00,,,-99.99,,2013-09-05 09:43:00,
2013-09-05 02:53:00,73.0,59.0,-100.00,SW,224,1.0,-999.0,60,0.00,,,-99.99,,2013-09-05 09:53:00,
2013-09-05 03:00:00,70.0,60.0,-100.00,South,173,2.0,-999.0,69,0.00,,,-99.99,,2013-09-05 10:00:00,
2013-09-05 03:43:00,70.0,60.0,-100.00,South,173,2.0,-999.0,69,0.00,,,-99.99,,2013-09-05 10:43:00,
2013-09-05 03:53:00,70.0,60.0,-100.00,South,173,2.0,-999.0,69,0.00,,,-99.99,,2013-09-05 10:53:00,
2013-09-05 04:00:00,69.0,58.0,-100.00,WSW,248,2.0,-999.0,67,0.00,,,-99.99,,2013-09-05 11:00:00,
2013-09-05 04:43:00,69.0,58.0,-100.00,WSW,248,2.0,-999.0,67,0.00,,,-99.99,,2013-09-05 11:43:00,
2013-09-05 04:52:00,69.0,58.0,-100.00,WSW,248,2.0,-999.0,67,0.00,,,-99.99,,2013-09-05 11:52:00,
2013-09-05 05:00:00,67.0,58.0,-100.00,South,180,4.0,-999.0,73,0.00,,,-99.99,,2013-09-05 12:00:00,
2013-09-05 05:42:00,67.0,58.0,-100.00,South,180,4.0,-999.0,73,0.00,,,-99.99,,2013-09-05 12:42:00,
2013-09-05 05:52:00,67.0,58.0,-100.00,South,180,4.0,-999.0,73,0.00,,,-99.99,,2013-09-05 12:52:00,
2013-09-05 06:00:00,66.0,56.0,-100.00,SSE,167,4.0,-999.0,71,0.00,,,-99.99,,2013-09-05 13:00:00,
2013-09-05 06:42:00,66.0,56.0,-100.00,SSE,167,4.0,-999.0,71,0.00,,,-99.99,,2013-09-05 13:42:00,
2013-09-05 06:53:00,66.0,56.0,-100.00,SSE,167,4.0,-999.0,71,0.00,,,-99.99,,2013-09-05 13:53:00,
2013-09-05 07:00:00,65.0,56.0,-100.00,SW,223,4.0,-999.0,73,0.00,,,-99.99,,2013-09-05 14:00:00,
2013-09-05 07:42:00,65.0,56.0,-100.00,SW,223,4.0,-999.0,73,0.00,,,-99.99,,2013-09-05 14:42:00,
2013-09-05 07:52:00,65.0,56.0,-100.00,SW,223,4.0,-999.0,73,0.00,,,-99.99,,2013-09-05 14:52:00,
2013-09-05 08:00:00,67.0,55.0,-100.00,SSE,159,3.0,-999.0,66,0.00,,,-99.99,,2013-09-05 15:00:00,
2013-09-05 08:44:00,67.0,55.0,-100.00,SSE,159,3.0,-999.0,66,0.00,,,-99.99,,2013-09-05 15:44:00,
2013-09-05 08:54:00,67.0,55.0,-100.00,SSE,159,3.0,-999.0,66,0.00,,,-99.99,,2013-09-05 15:54:00,
2013-09-05 09:00:00,71.0,53.0,-100.00,SSW,200,0.0,-999.0,52,0.00,,,-99.99,,2013-09-05 16:00:00,
2013-09-05 09:43:00,71.0,53.0,-100.00,SSW,200,0.0,-999.0,52,0.00,,,-99.99,,2013-09-05 16:43:00,
2013-09-05 09:54:00,71.0,53.0,-100.00,SSW,200,0.0,-999.0,52,0.00,,,-99.99,,2013-09-05 16:54:00,
2013-09-05 10:00:00,75.0,52.0,-100.00,East,88,2.0,-999.0,45,0.00,,,-99.99,,2013-09-05 17:00:00,
2013-09-05 10:43:00,75.0,52.0,-100.00,East,88,2.0,-999.0,45,0.00,,,-99.99,,2013-09-05 17:43:00,
2013-09-05 10:52:00,75.0,52.0,-100.00,East,88,2.0,-999.0,45,0.00,,,-99.99,,2013-09-05 17:52:00,
2013-09-05 11:00:00,79.0,53.0,-100.00,SW,215,5.0,-999.0,40,0.00,,,-99.99,,2013-09-05 18:00:00,
2013-09-05 11:43:00,79.0,53.0,-100.00,SW,215,5.0,-999.0,40,0.00,,,-99.99,,2013-09-05 18:43:00,
2013-09-05 11:52:00,79.0,53.0,-100.00,SW,215,5.0,-999.0,40,0.00,,,-99.99,,2013-09-05 18:52:00,
2013-09-05 12:00:00,84.0,53.0,-100.00,SW,216,6.0,-999.0,34,0.00,,,-99.99,,2013-09-05 19:00:00,
2013-09-05 12:42:00,84.0,53.0,-100.00,SW,216,6.0,-999.0,34,0.00,,,-99.99,,2013-09-05 19:42:00,
2013-09-05 12:52:00,84.0,53.0,-100.00,SW,216,6.0,-999.0,34,0.00,,,-99.99,,2013-09-05 19:52:00,
2013-09-05 13:00:00,85.0,53.0,-100.00,WSW,244,7.0,-999.0,33,0.00,,,-99.99,,2013-09-05 20:00:00,
2013-09-05 13:43:00,85.0,53.0,-100.00,WSW,244,7.0,-999.0,33,0.00,,,-99.99,,2013-09-05 20:43:00,
2013-09-05 13:52:00,85.0,53.0,-100.00,WSW,244,7.0,-999.0,33,0.00,,,-99.99,,2013-09-05 20:52:00,
2013-09-05 14:00:00,88.0,53.0,-100.00,NW,311,8.0,-999.0,30,0.00,,,-99.99,,2013-09-05 21:00:00,
2013-09-05 14:44:00,88.0,53.0,-100.00,NW,311,8.0,-999.0,30,0.00,,,-99.99,,2013-09-05 21:44:00,
2013-09-05 14:54:00,88.0,53.0,-100.00,NW,311,8.0,-999.0,30,0.00,,,-99.99,,2013-09-05 21:54:00,
2013-09-05 15:00:00,89.0,54.0,-100.00,North,1,2.0,-999.0,30,0.00,,,-99.99,,2013-09-05 22:00:00,
2013-09-05 15:43:00,89.0,54.0,-100.00,North,1,2.0,-999.0,30,0.00,,,-99.99,,2013-09-05 22:43:00,
2013-09-05 15:53:00,89.0,54.0,-100.00,North,1,2.0,-999.0,30,0.00,,,-99.99,,2013-09-05 22:53:00,
2013-09-05 16:00:00,92.0,56.0,-100.00,West,277,8.0,-999.0,30,0.00,,,-99.99,,2013-09-05 23:00:00,
2013-09-05 16:42:00,92.0,56.0,-100.00,West,277,8.0,-999.0,30,0.00,,,-99.99,,2013-09-05 23:42:00,
2013-09-05 16:53:00,92.0,56.0,-100.00,West,277,8.0,-999.0,30,0.00,,,-99.99,,2013-09-05 23:53:00,
2013-09-05 17:00:00,92.0,56.0,-100.00,NW,318,6.0,-999.0,30,0.00,,,-99.99,,2013-09-06 00:00:00,
2013-09-05 17:42:00,92.0,56.0,-100.00,NW,318,6.0,-999.0,30,0.00,,,-99.99,,2013-09-06 00:42:00,
2013-09-05 17:52:00,92.0,56.0,-100.00,NW,318,6.0,-999.0,30,0.00,,,-99.99,,2013-09-06 00:52:00,
2013-09-05 18:00:00,91.0,56.0,-100.00,NNW,327,7.0,-999.0,30,0.00,,,-99.99,,2013-09-06 01:00:00,
2013-09-05 18:42:00,91.0,56.0,-100.00,NNW,327,7.0,-999.0,30,0.00,,,-99.99,,2013-09-06 01:42:00,
2013-09-05 18:52:00,91.0,56.0,-100.00,NNW,327,7.0,-999.0,30,0.00,,,-99.99,,2013-09-06 01:52:00,
2013-09-05 19:00:00,90.0,57.0,-100.00,WNW,292,8.0,-999.0,33,0.00,,,-99.99,,2013-09-06 02:00:00,
2013-09-05 19:42:00,90.0,57.0,-100.00,WNW,292,8.0,-999.0,33,0.00,,,-99.99,,2013-09-06 02:42:00,
2013-09-05 19:52:00,90.0,57.0,-100.00,WNW,292,8.0,-999.0,33,0.00,,,-99.99,,2013-09-06 02:52:00,
2013-09-05 20:00:00,88.0,57.0,-100.00,WNW,282,6.0,-999.0,36,0.00,,,-99.99,,2013-09-06 03:00:00,
2013-09-05 20:44:00,88.0,57.0,-100.00,WNW,282,6.0,-999.0,36,0.00,,,-99.99,,2013-09-06 03:44:00,
2013-09-05 20:55:00,88.0,57.0,-100.00,WNW,282,6.0,-999.0,36,0.00,,,-99.99,,2013-09-06 03:55:00,
2013-09-05 21:00:00,82.0,59.0,-100.00,West,274,2.0,-999.0,46,0.00,,,-99.99,,2013-09-06 04:00:00,
2013-09-05 21:44:00,82.0,59.0,-100.00,West,274,2.0,-999.0,46,0.00,,,-99.99,,2013-09-06 04:44:00,
2013-09-05 21:54:00,82.0,59.0,-100.00,West,274,2.0,-999.0,46,0.00,,,-99.99,,2013-09-06 04:54:00,
2013-09-05 22:00:00,80.0,59.0,-100.00,ESE,112,0.0,-999.0,49,0.00,,,-99.99,,2013-09-06 05:00:00,
2013-09-05 22:43:00,80.0,59.0,-100.00,ESE,112,0.0,-999.0,49,0.00,,,-99.99,,2013-09-06 05:43:00,
2013-09-05 22:52:00,80.0,59.0,-100.00,ESE,112,0.0,-999.0,49,0.00,,,-99.99,,2013-09-06 05:52:00,
2013-09-05 23:00:00,79.0,57.0,-100.00,SE,141,2.0,-999.0,47,0.00,,,-99.99,,2013-09-06 06:00:00,
2013-09-05 23:42:00,79.0,57.0,-100.00,SE,141,2.0,-999.0,47,0.00,,,-99.99,,2013-09-06 06:42:00,
2013-09-05 23:53:00,79.0,57.0,-100.00,SE,141,2.0,-999.0,47,0.00,,,-99.99,,2013-09-06 06:53:00,